Terminal Aerodrome Forecast
Issued by NWS

Home | Current Version | Previous Version | Graphics & Text | Print | Product List | Glossary On
Versions: 1 2 3 4 5 6 7 8 9 10 11 12 13 14 15 16 17 18 19 20 21 22 23 24 25 26 27 28 29 30 31 32
000
FTUS43 KLOT 220300 AAA
TAFDPA
TAF AMD
KDPA 220301Z 2203/2224 28006KT P6SM OVC045
     FM220500 35012G18KT P6SM FEW070
     FM222200 01008G18KT P6SM FEW250=

USA.gov is the U.S. government's official web portal to all federal, state and local government web resources and services.